Temperature
17 17 17 17 17 17 17 17 17 17 18 18 18 18 18 17 17 18 17 17 17 17 18 18 18 18 18 18 18 18 18 18 18 18 18 18 18 18 18 18 18 18 18
17 17 17 17 17 17 17 17 17 17 17 17 17 17 17 17 17 17 17 17 17 17 17 17 18 18 18 18 18 18 18 18 18 18 18 18 18 18 18 18 18 18 18
17 17 17 17 17 17 17 17 17 17 17 17 17 17 17 17 17 17 17 17 17 17 17 17 17 17 18 18 18 18 18 18 18 18 17 18 18 17 17 18 18 18 18
17 17 17 17 17 17 17 17 17 17 17 17 17 17 17 17 17 17 17 17 17 17 17 17 17 17 17 17 17 17 17 17 17 17 17 17 17 17 17 17 17 17 17
17 17 17 17 17 17 17 17 17 17 17 17 17 17 17 17 17 17 17 17 17 17 17 17 17 17 17 17 17 17 17 17 17 17 17 17 17 17 17 17 17 17 17
17 17 17 17 17 17 17 17 17 17 17 17 17 17 17 17 17 17 16 17 17 17 17 17 17 17 17 17 17 17 17 17 17 17 17 17 17 17 17 17 17 17 17
17 17 17 17 17 17 17 17 17 17 17 17 17 17 17 16 16 16 16 16 17 17 17 17 17 17 17 17 17 17 17 17 17 17 17 17 17 17 17 17 17 17 17
17 17 17 17 17 17 17 16 16 16 16 16 16 16 16 16 16 16 16 16 16 16 16 16 16 16 16 16 16 17 17 17 17 16 16 16 16 16 16 17 16 16 16
17 17 17 17 17 17 16 16 16 16 16 16 16 16 16 16 16 16 16 16 16 16 16 16 16 16 16 16 16 16 16 16 16 16 16 16 16 16 16 16 16 16 16
17 17 17 16 16 16 16 16 16 16 16 16 16 16 16 16 16 16 16 16 16 16 16 16 16 16 16 16 16 16 16 16 16 16 16 16 16 16 16 16 16 16 16
16 16 16 16 16 16 16 16 16 16 16 16 16 16 16 16 16 16 16 16 16 16 16 16 16 16 16 16 16 16 16 16 16 16 16 16 16 16 16 16 16 16 16
16 16 16 16 16 16 16 16 16 16 16 16 16 16 16 16 16 16 15 16 16 16 16 16 16 16 16 16 16 16 16 16 16 16 16 16 16 16 16 16 15 16 16
16 16 16 16 16 16 16 16 16 16 16 16 15 15 15 15 15 15 15 16 16 16 16 16 16 16 16 16 15 15 15 15 15 15 15 15 15 15 15 15 15 15 15
17 16 16 16 16 16 16 16 16 16 15 16 15 15 15 15 15 15 15 15 15 15 16 16 15 15 15 15 15 15 15 15 15 15 15 15 15 15 15 15 15 15 15
17 16 16 16 16 16 16 16 15 15 15 15 15 15 15 15 15 15 15 15 15 15 15 15 15 15 15 15 15 15 15 15 15 15 15 15 15 15 15 15 15 15 15
17 17 16 16 16 16 16 16 15 15 15 15 15 15 15 15 15 15 15 15 15 15 15 15 15 15 15 15 15 15 15 15 15 15 14 14 14 14 14 14 14 14 14
17 17 16 16 16 16 16 15 15 15 15 15 15 15 15 15 15 15 15 15 15 15 15 15 15 15 15 15 15 15 15 14 14 14 14 14 14 14 14 14 14 14 14
17 16 16 16 16 15 15 15 15 15 15 15 15 15 15 15 15 15 15 14 14 14 14 15 15 15 15 14 14 14 14 14 14 14 14 14 14 14 14 14 14 14 14
16 16 16 16 16 15 15 15 15 15 15 15 15 14 14 14 14 14 14 14 14 14 14 14 14 14 14 14 14 14 14 14 14 14 14 14 14 14 14 14 14 14 14
16 16 16 16 15 15 15 15 15 15 15 15 14 14 14 14 14 14 14 14 14 14 14 14 14 14 14 14 14 14 14 14 14 14 14 13 13 13 13 14 14 13 13
16 16 16 16 15 15 15 15 15 15 15 15 14 14 14 14 14 14 14 14 14 14 14 14 14 14 14 14 14 14 13 13 13 13 13 13 13 13 13 13 13 13 13
16 16 16 16 15 15 15 15 15 15 14 14 14 14 14 14 14 14 14 14 14 14 14 14 14 14 13 13 13 13 13 13 13 13 13 13 13 13 13 13 13 13 13
16 15 15 15 15 15 15 15 15 14 14 14 14 14 14 13 13 13 13 13 13 13 13 13 13 13 13 13 13 13 13 12 12 12 12 12 12 12 12 12 12 12 12
15 15 15 15 15 15 15 14 14 14 14 14 14 14 13 13 13 13 13 13 13 13 13 13 13 13 12 12 12 12 12 12 12 12 12 12 12 12 12 12 12 12 12
15 15 15 15 15 15 14 14 14 14 14 14 13 13 13 13 13 13 13 13 13 13 12 12 12 12 12 12 12 12 12 12 12 11 11 11 12 11 11 11 11 11 11
15 15 15 15 15 14 14 14 14 14 14 13 13 13 13 13 13 12 12 12 12 12 12 12 12 12 12 11 11 11 11 11 11 11 11 11 11 11 11 11 11 11 11
Wind_Speed
2 2 1 2 4 4 5 6 7 8 8 9 9 9 9 9 9 9 9 9 9 9 9 9 8 8 7 6 6 6 7 8 8 8 7 7 7 7 7 6 6 5 5
1 1 0 3 4 5 6 6 7 8 9 9 9 9 9 9 9 9 9 9 9 9 9 9 9 7 6 6 6 6 7 8 8 8 8 7 7 7 6 6 6 5 5
1 0 2 4 4 5 6 7 7 8 9 9 9 9 9 10 9 10 9 9 9 9 9 9 10 9 9 9 8 8 9 9 9 8 7 6 5 6 6 6 6 5 5
2 2 2 4 5 6 7 7 8 9 9 10 10 10 10 10 10 10 10 9 9 10 9 10 10 10 10 10 10 10 11 10 10 9 7 6 4 6 6 6 5 6 5
3 2 2 4 5 6 7 7 8 9 9 10 10 11 11 11 10 10 10 10 10 10 10 9 10 10 10 11 11 11 11 11 10 9 7 6 4 5 6 6 6 6 6
3 3 3 4 5 6 6 7 7 8 9 10 10 11 11 11 11 11 11 10 10 10 10 10 10 10 10 11 11 11 11 11 10 8 7 6 4 5 6 6 6 6 5
3 3 3 4 4 5 6 7 8 9 9 10 10 10 10 11 11 11 11 11 11 11 10 10 10 10 11 11 11 11 11 10 9 7 6 5 6 7 7 7 7 6 6
3 3 3 4 4 5 6 7 7 9 9 9 10 10 10 11 11 11 11 11 11 11 11 10 10 10 11 11 11 11 10 9 8 6 5 5 6 7 7 7 7 7 6
4 4 4 5 6 7 7 8 9 9 10 10 10 9 10 10 10 10 10 10 10 10 10 10 10 10 10 10 10 10 10 9 8 6 5 5 6 7 7 7 7 7 6
4 4 4 5 6 7 7 8 9 9 9 9 9 9 9 10 10 10 9 9 10 10 10 10 9 10 10 10 10 9 10 9 7 6 5 5 7 7 7 7 7 7 7
3 3 4 4 5 5 5 7 8 8 9 9 9 9 9 9 9 8 9 9 10 10 10 10 10 10 10 10 10 10 9 7 6 5 5 6 7 7 7 7 7 7 7
1 2 3 3 3 4 5 6 7 7 7 8 8 8 8 8 8 8 8 9 10 10 10 11 11 10 9 8 9 9 7 7 6 4 4 6 6 7 7 7 7 7 7
2 2 2 3 3 4 4 5 5 5 6 7 7 7 7 7 7 7 7 7 8 9 8 9 9 8 7 6 6 6 6 6 5 5 5 6 7 7 8 8 7 7 7
3 2 2 3 3 3 4 3 4 4 4 4 5 6 6 4 5 5 4 5 6 5 6 6 6 7 7 7 6 6 6 5 5 5 6 7 8 8 8 8 7 6 6
4 3 3 3 3 3 3 3 4 3 3 4 4 4 5 3 2 3 3 5 5 5 5 4 4 5 5 6 6 6 6 6 6 7 6 8 9 9 9 9 10 9 7
4 4 3 3 3 3 3 3 3 3 3 4 4 4 4 4 3 2 3 3 4 4 4 4 4 4 4 4 5 6 6 6 6 7 7 7 9 10 10 10 10 10 9
4 4 4 4 3 4 3 3 3 3 4 4 4 4 4 4 4 3 3 3 3 5 5 5 5 5 4 4 5 5 5 6 6 6 7 7 7 9 10 10 10 10 10
4 4 4 4 4 3 3 3 3 4 4 4 4 5 5 5 5 4 3 3 4 5 4 3 3 4 4 4 3 4 4 5 6 6 7 7 7 7 8 10 10 10 10
5 5 4 4 4 4 3 3 4 4 4 4 5 5 5 6 6 5 4 3 4 4 3 3 3 3 3 3 3 4 4 4 4 6 6 7 8 8 8 9 10 11 10
4 4 5 4 4 4 3 3 3 3 3 4 4 4 5 6 6 6 5 4 4 3 3 3 3 3 3 2 3 4 4 3 4 5 5 6 8 8 8 9 8 8 10
4 4 5 5 4 4 2 2 2 1 1 2 3 5 5 6 6 6 4 4 4 3 3 3 3 4 4 2 3 3 3 4 4 4 4 5 6 7 8 8 7 7 7
3 3 3 4 4 3 2 2 2 2 1 1 2 4 5 5 5 5 5 3 3 3 4 4 3 2 2 3 2 2 2 3 3 4 4 4 4 5 6 7 7 7 7
3 4 4 4 4 3 3 3 3 3 3 2 2 2 4 5 5 5 4 4 3 3 3 2 2 3 2 2 3 3 2 1 1 3 3 4 4 4 4 5 7 7 7
4 3 4 4 3 3 4 4 4 3 2 1 1 1 2 5 5 5 4 4 3 3 3 2 2 2 3 1 2 2 2 2 1 1 2 3 4 4 4 4 5 6 7
4 3 4 4 4 3 4 5 5 3 2 2 2 2 2 3 4 4 4 4 3 3 2 3 3 3 2 2 1 1 1 2 2 2 1 3 3 3 3 3 3 4 6
3 3 3 4 3 3 4 4 5 5 4 4 3 2 2 2 2 3 4 4 3 3 2 2 2 3 2 2 2 2 2 1 1 1 1 1 2 2 3 3 3 4 5
Wind_Direction
285 297 340 84 77 72 72 71 70 75 78 80 81 80 79 84 86 86 84 81 82 80 79 77 79 82 89 97 109 117 115 112 111 107 104 102 104 106 107 103 100 96 100
213 282 107 92 81 76 75 76 75 78 82 82 83 81 80 84 88 89 86 83 80 78 77 73 72 77 80 82 98 115 122 117 111 106 101 95 100 104 106 104 102 103 105
102 72 117 101 89 83 78 76 80 81 83 83 84 84 84 84 86 87 86 85 80 78 77 72 70 71 72 76 91 106 115 115 109 103 93 79 86 100 103 106 105 104 106
94 87 100 100 95 89 80 78 81 85 85 86 86 83 82 83 83 84 84 83 80 77 77 75 72 70 72 74 85 98 106 107 104 98 81 73 76 95 98 99 105 104 104
78 78 94 98 99 96 90 85 84 88 87 87 84 82 80 82 81 81 82 80 76 74 75 76 74 72 72 73 79 90 96 100 97 87 75 69 71 89 93 94 95 98 96
79 70 80 94 98 101 102 97 91 90 90 87 84 83 81 81 80 77 77 77 75 75 76 74 74 76 77 78 80 85 90 92 85 77 70 68 73 86 87 85 82 87 88
78 60 72 81 94 101 108 104 98 94 91 87 84 81 79 78 76 73 72 72 73 75 75 73 72 74 76 80 81 83 86 86 82 77 68 65 73 80 81 77 76 73 76
86 56 61 71 72 92 108 109 100 91 89 87 82 77 75 73 71 68 69 70 72 73 72 71 71 71 73 78 80 81 86 86 80 73 66 64 78 80 78 74 71 66 66
71 59 44 53 60 78 93 94 88 84 83 83 79 75 71 71 70 67 66 66 68 70 71 70 69 68 70 72 76 78 82 80 74 65 60 60 75 79 77 73 70 66 61
61 55 52 51 56 60 70 77 76 76 77 75 72 68 65 63 61 61 60 63 65 65 66 67 68 65 65 67 71 75 78 73 67 58 50 58 66 71 70 69 68 67 62
61 48 53 54 54 60 66 72 70 69 68 65 61 58 52 48 49 51 53 60 61 61 61 62 64 65 63 62 67 72 71 67 65 56 50 54 59 67 68 66 59 65 62
102 60 57 63 59 59 69 68 64 64 61 58 56 54 48 45 45 49 51 53 56 58 58 59 61 60 60 58 60 64 63 63 60 52 52 55 62 68 70 65 58 63 65
156 117 89 80 72 72 68 71 65 64 61 57 55 56 56 50 43 46 46 44 49 53 51 51 54 56 60 61 60 61 60 57 51 46 47 54 63 67 67 63 59 61 63
142 144 119 103 92 83 79 75 74 68 64 58 56 61 63 50 41 43 49 43 46 50 51 55 57 55 57 59 63 63 59 56 49 42 44 51 55 57 60 58 56 60 64
156 152 142 130 116 98 89 83 81 69 66 63 62 62 72 65 50 41 42 48 46 50 57 61 60 59 56 53 57 64 59 55 50 44 42 48 51 51 53 54 54 53 56
168 164 154 140 122 107 101 92 88 80 76 66 57 58 73 76 67 54 45 47 45 52 61 68 68 73 67 63 58 58 57 55 53 48 42 41 44 49 50 52 51 51 49
172 162 155 151 126 117 111 101 91 83 82 68 58 63 73 78 80 72 63 49 44 58 68 69 62 66 67 62 54 52 53 48 48 43 42 39 35 39 43 47 48 49 45
160 155 163 155 141 131 122 111 97 87 81 68 66 68 70 73 83 79 66 51 55 65 68 75 63 64 59 57 55 46 46 45 44 43 42 38 34 34 34 40 45 47 43
163 158 153 142 138 136 127 107 93 83 76 70 70 68 68 74 79 81 68 55 64 69 65 73 64 72 66 55 60 55 42 43 40 46 43 39 36 38 38 37 40 41 40
144 144 141 133 127 120 102 84 75 67 59 61 66 68 73 74 76 79 71 58 69 75 61 60 70 64 67 59 70 58 40 38 41 43 41 43 43 42 42 41 38 32 34
116 129 142 140 137 130 119 116 105 94 54 49 54 62 71 75 76 75 68 56 66 77 77 75 80 71 52 46 68 44 26 36 42 35 34 41 39 40 43 41 39 36 29
143 142 145 151 151 145 141 143 145 139 107 96 60 56 62 73 78 82 79 68 64 80 70 63 72 75 50 44 83 88 29 6 11 23 29 35 29 37 39 35 38 36 33
155 166 166 166 154 145 135 113 92 74 64 53 43 41 40 63 73 77 80 77 67 81 86 72 73 90 76 30 52 102 120 218 319 352 18 27 22 27 23 29 33 30 29
182 171 160 152 142 140 137 131 130 129 129 147 139 87 56 56 62 70 76 77 72 76 80 70 73 82 102 79 25 43 97 141 138 331 339 2 16 24 12 19 23 24 25
166 150 151 138 133 131 132 136 134 120 124 103 94 88 70 52 54 61 72 75 71 67 72 70 69 75 92 113 95 74 65 59 81 144 280 330 353 359 358 8 18 17 17
144 137 139 140 138 139 136 131 136 133 124 113 103 103 78 57 45 54 69 69 70 72 73 74 76 80 77 87 85 86 113 117 153 137 195 295 318 319 337 2 10 1 7
Height
1512 1512 1511 1511 1511 1511 1511 1510 1510 1510 1509 1509 1509 1509 1509 1508 1508 1508 1508 1509 1509 1509 1509 1508 1508 1507 1505 1504 1503 1504 1507 1510 1512 1514 1516 1517 1517 1518 1519 1519 1519 1519 1520
1512 1512 1512 1512 1512 1512 1511 1511 1511 1511 1511 1510 1510 1510 1510 1510 1510 1510 1510 1510 1510 1510 1509 1509 1508 1507 1504 1500 1497 1499 1504 1509 1512 1514 1516 1517 1518 1519 1519 1519 1520 1520 1520
1512 1513 1513 1513 1513 1512 1512 1512 1512 1512 1512 1511 1511 1511 1511 1511 1511 1511 1511 1511 1511 1511 1510 1510 1509 1507 1504 1499 1497 1498 1503 1508 1511 1515 1516 1518 1518 1519 1519 1520 1520 1520 1520
1513 1513 1513 1513 1513 1513 1513 1513 1513 1513 1513 1513 1513 1513 1512 1512 1512 1512 1512 1512 1512 1512 1512 1511 1510 1509 1507 1503 1501 1502 1506 1509 1513 1515 1517 1518 1519 1520 1520 1520 1520 1520 1521
1514 1514 1514 1514 1514 1513 1514 1514 1514 1514 1514 1514 1514 1514 1514 1514 1514 1513 1513 1513 1514 1513 1513 1512 1512 1511 1510 1508 1507 1508 1510 1512 1515 1517 1518 1519 1520 1520 1521 1521 1521 1521 1521
1515 1515 1515 1515 1514 1513 1513 1514 1515 1515 1516 1516 1515 1515 1515 1515 1515 1515 1515 1515 1515 1515 1514 1514 1514 1513 1513 1512 1512 1512 1513 1515 1517 1518 1519 1520 1520 1521 1521 1521 1521 1522 1522
1515 1516 1515 1515 1513 1512 1513 1514 1516 1516 1517 1517 1517 1517 1517 1517 1517 1516 1516 1516 1516 1516 1516 1516 1516 1515 1515 1515 1515 1516 1516 1517 1518 1519 1520 1521 1521 1522 1522 1522 1522 1522 1522
1516 1516 1516 1515 1513 1510 1511 1514 1517 1517 1518 1518 1518 1518 1518 1518 1518 1518 1518 1518 1518 1518 1517 1517 1517 1517 1517 1517 1517 1518 1519 1519 1520 1521 1521 1522 1522 1522 1523 1522 1522 1522 1522
1517 1517 1517 1516 1514 1512 1513 1516 1518 1519 1519 1519 1520 1520 1520 1520 1520 1519 1519 1519 1519 1519 1519 1519 1519 1519 1519 1519 1519 1520 1520 1521 1521 1522 1523 1523 1523 1523 1523 1523 1523 1523 1523
1519 1519 1518 1518 1517 1517 1518 1519 1520 1521 1521 1521 1521 1521 1521 1521 1521 1521 1521 1521 1521 1521 1520 1520 1520 1520 1520 1520 1521 1521 1522 1522 1522 1523 1524 1524 1524 1524 1524 1523 1523 1523 1523
1520 1520 1520 1520 1520 1521 1521 1522 1522 1522 1522 1523 1523 1523 1523 1523 1523 1523 1523 1523 1522 1522 1522 1522 1522 1522 1522 1522 1522 1522 1523 1523 1524 1524 1524 1525 1524 1524 1524 1524 1523 1523 1523
1520 1521 1521 1522 1522 1522 1523 1523 1524 1524 1524 1524 1524 1525 1525 1525 1525 1525 1525 1525 1524 1524 1524 1523 1523 1523 1523 1523 1523 1524 1524 1524 1525 1525 1525 1525 1525 1525 1524 1524 1524 1523 1523
1521 1522 1522 1523 1524 1524 1524 1525 1525 1525 1526 1526 1526 1526 1526 1526 1526 1526 1526 1526 1526 1525 1525 1525 1525 1525 1525 1525 1525 1525 1525 1525 1526 1526 1526 1526 1526 1525 1525 1525 1524 1524 1524
1522 1523 1524 1524 1525 1525 1526 1526 1527 1527 1527 1527 1527 1527 1527 1527 1527 1527 1527 1527 1527 1527 1527 1526 1526 1526 1526 1526 1526 1526 1527 1526 1527 1527 1527 1527 1527 1526 1526 1525 1525 1525 1524
1523 1524 1525 1525 1526 1526 1527 1527 1528 1528 1528 1529 1529 1529 1529 1529 1528 1528 1528 1528 1528 1528 1528 1527 1527 1527 1527 1527 1527 1528 1528 1528 1528 1528 1528 1528 1528 1527 1526 1526 1525 1525 1525
1523 1524 1525 1526 1527 1527 1528 1528 1529 1529 1529 1529 1530 1530 1530 1530 1529 1529 1529 1529 1528 1528 1528 1528 1528 1528 1528 1528 1528 1528 1528 1529 1529 1529 1529 1528 1528 1528 1527 1527 1526 1526 1525
1524 1525 1526 1527 1528 1528 1528 1529 1529 1530 1530 1530 1530 1530 1530 1530 1530 1530 1529 1529 1529 1529 1528 1529 1529 1529 1529 1529 1529 1529 1529 1529 1529 1529 1529 1529 1529 1528 1528 1528 1527 1527 1526
1524 1525 1526 1527 1528 1528 1529 1529 1530 1530 1531 1531 1531 1531 1531 1531 1531 1530 1530 1529 1529 1529 1529 1529 1529 1529 1529 1529 1529 1530 1530 1530 1530 1530 1530 1529 1529 1529 1529 1528 1528 1527 1526
1524 1525 1526 1527 1528 1529 1529 1530 1530 1531 1531 1531 1531 1531 1531 1531 1531 1531 1530 1529 1529 1529 1529 1529 1529 1529 1529 1529 1530 1530 1530 1530 1530 1530 1530 1530 1530 1529 1529 1529 1528 1528 1527
1523 1524 1526 1527 1528 1529 1529 1530 1531 1531 1531 1532 1532 1532 1532 1531 1531 1531 1530 1529 1529 1528 1528 1529 1529 1529 1529 1530 1530 1530 1531 1531 1531 1531 1531 1531 1530 1530 1530 1529 1528 1528 1527
1523 1524 1525 1526 1528 1528 1529 1529 1530 1531 1531 1532 1532 1532 1532 1532 1531 1531 1530 1529 1529 1528 1528 1529 1529 1529 1529 1529 1530 1530 1531 1531 1531 1531 1531 1531 1531 1530 1530 1529 1529 1528 1527
1522 1523 1524 1526 1527 1528 1528 1529 1530 1531 1531 1532 1532 1532 1532 1532 1532 1531 1530 1529 1529 1528 1528 1528 1528 1528 1528 1529 1529 1529 1530 1532 1531 1531 1531 1531 1531 1531 1530 1529 1529 1528 1527
1520 1522 1523 1525 1526 1527 1528 1529 1530 1530 1531 1531 1531 1532 1532 1532 1532 1531 1531 1530 1529 1528 1528 1528 1528 1528 1528 1529 1529 1530 1530 1530 1530 1531 1530 1530 1530 1530 1529 1529 1528 1528 1527
1519 1521 1522 1524 1525 1526 1527 1528 1528 1529 1529 1530 1530 1531 1531 1531 1531 1531 1530 1530 1529 1528 1528 1527 1528 1528 1528 1528 1529 1529 1530 1530 1530 1530 1530 1529 1529 1529 1529 1528 1528 1527 1526
1518 1519 1521 1522 1524 1525 1526 1527 1527 1528 1529 1529 1530 1530 1530 1530 1530 1530 1530 1529 1529 1528 1528 1528 1528 1528 1528 1528 1528 1528 1528 1529 1529 1529 1528 1528 1528 1528 1528 1527 1527 1526 1525
1516 1518 1519 1521 1522 1524 1525 1525 1526 1527 1527 1528 1528 1529 1529 1529 1529 1529 1529 1528 1528 1528 1527 1527 1527 1527 1527 1527 1527 1527 1527 1527 1527 1527 1527 1526 1526 1526 1526 1526 1526 1525 1524